Ana Sayfa
METAR-TAF:

METAR-TAF

Havaalanları :

Burnet Municipal Airport (Kate Craddock Field)

Burnet, Teksas, Amerika Birleşik Devletleri

Enlem: 30-44-26N, Boylam: 098-14-07W, yükseklik: 392 m

Güncel hava durumu gözlemi

Rapor saat 18:53 UTC de 26 dakika önce yapıldı.
Rüzgar güneydan 4 kt
Sıcaklık 20°C
Nem 37%
Basınç 1010 hPa
Görüş mesafesi: 16.1 km
Açık gökyüzü

METAR: KBMQ 141853Z AUTO 17004KT 10SM CLR 20/05 A2982 RMK AO2 SLP092 T02000050 $

Saat: 13:19 (19:19 UTC)


TAF: eksik

4.000'den fazla havaalanı için hava durumu gözlemleri ve tahminleri (METAR ve TAF raporları).

Kullanılabilir istasyonlar harita üzerinde sarı ve kırmızı noktalarla gösterilir.

İstasyonun adını görmek için fareyi noktanın üzerinde gezdirin.

Sonrasında hava gözlem ve tahminlerini görmek için tıklayın.

Haritayı değiştirmek için: yaklaştırmak için siyah artı işaretli yeşil düğmeye ve uzaklaştırmak için de eksi işaretli düğmeye hızla tıklayın; bitişik haritalar için yeşil okları kullanın.


METAR-TAF: